User: anonymous   Login
Location: Newark
(13.8117°N, 3.6025°W)
Time: 00:29:44
(UTC+00:00)
Language:

Altair - Orbit

View from above orbital plane
View from above orbital plane
View from above satellite
View from above satellite

Ground track
Ground track

The orbit data is extracted from the following two-line orbital elements,

1    50U 60009B   19231.67082062 -.00000084  00000-0  17098-4 0  9999
2    50  47.2333 341.0036 0113942 143.5476 217.3137 12.20109706633718
Epoch (UTC): 19 August 2019 16:05:58
Eccentricity: 0.0113942
inclination: 47.2333°
perigee height: 1501 km
apogee height: 1683 km
right ascension of ascending node: 341.0036°
argument of perigee: 143.5476°
revolutions per day: 12.20109706
mean anomaly at epoch: 217.3137°
orbit number at epoch: 63371

The dashed part of the orbit path shows where the satellite is in the earth's shadow,  

DLR